FENGYUN 1C DEB

Satellite information

Favourite Embed

Satellite Type and Status

DEBRISIN ORBIT

Key statistics

Satellite FENGYUN 1C DEB at a glance.

Uptime

9714

Days in orbit

Revolutions

≈ 14.1

Per day

Orbit

SSO

Sun Synchronous Orbit

Inclination

98.7

Latest

Satellite identification and parameters

Extended collection of information and parameters for FENGYUN 1C DEB.

Object identification

Identified? True

Debris? True

Object name: FENGYUN 1C DEB

International designator: 1999-025BAG

Object number (NORAD): 30942

Object ID (CCSDS): 30942

Country: PEOPLES REPUBLIC OF CHINA (PRC)

Current information (Y/N): Y

RCS size: SMALL

Orbital parameters

Period: 101.779 minutes

Inclination: 98.6797 deg

SMA: 7221.012 km

Apoapsis: 942.505 km

Periapsis: 743.248 km

RAAN: 342.7629 deg

Eccentricy: 0.01379705

Argument of periapsis: 112.7712 deg

Mean anomaly: 43.1485 deg

Mean motion: 14.14834633 rev/day

Mean motion (dot): 0.00000602 rev/day2

B* drag term: 0.00030431529 1/REarth

Two-line elements (TLE)

Creation date: Dec. 10, 2025, 7:58 p.m.

Reference frame: TEME

Reference center: EARTH

Epoch: Dec. 10, 2025, 11:01 a.m. UTC

TLE line 0: 0 FENGYUN 1C DEB

TLE line 1: 1 30942U 99025BAG 25344.45918683 .00000602 00000-0 30432-3 0 9998

TLE line 2: 2 30942 98.6797 342.7629 0137971 112.7712 43.1485 14.14834633966124

Live tracking on map

Real-time ground track for satellite FENGYUN 1C DEB.

In-orbit conjunctions

A list of the most updated potential collisions computed for object FENGYUN 1C DEB.

Target Orbit TCA Probability of collision Miss distance Type
DELTA 1 DEB SSO 2024-11-09 11:31:40 0.0001818444 88.0 (m) DEBRIS
SL-16 DEB LEO 2024-08-21 20:14:24 0.0001988608 104.0 (m) DEBRIS
FENGYUN 1C DEB SSO 2024-06-23 15:12:16 0.0001349041 241.0 (m) DEBRIS

Associated space launch

Chinese polar orbiting meteorological satellite

FENGYUN 1C DEB was lifted into orbit during the mission ‘Long March 4B | Feng Yun 1C’, on board a Long March 4B space rocket.

The launch took place on May 10, 1999, 1:33 a.m. from Launch Complex 7.

For more information about the launch, click the button.

Launch to space Long March 4B | Feng Yun 1C
Long March 4B | Feng Yun 1C

Agency: N/A

Status: Launch Successful

Launch date: May 10, 1999, 1:33 a.m. UTC

Rocket: Long March 4B

Launch pad: Launch Complex 7

Location: Taiyuan Satellite Launch Center, People's Republic of China

...

Latest news about this satellite

There are no fresh news available about this satellite. Check back as we update our databases every day.


Newsletter sign-up

Weekly statistics, charts and insights to help you stay on top of the space industry.